Вернуться в каталог

QIANFAN-3

АктивенСвязьPO
NORAD 60381·PAYLOAD·🇨🇳 China

Запущен Aug 6, 2024 с Taiyuan Satellite Launch Center

Loading…

Ближайшие Пролёты (ближайшие 24 часа)

TLE

СвежийSource: Space-Track

Эпоха: Sep 14, 2026, 21:51 UTC

1 60381U 24140C   26257.91057620  .00000019  00000-0  10680-4 0  9990
2 60381  88.9643 270.5224 0015819 118.3306 241.9443 13.51022964104607

Отслеживайте QIANFAN-3 в реальном времени с AllMySat

Download on the App Store